Hourly Data Report for September 19, 2017

All times are specified in Local Standard Time (LST). Add 1 hour to adjust for Daylight Saving Time where and when it is observed.

POND INLET A
NUNAVUT

72°41'22.000" N
77°58'08.000" W
61.60 m
2403206
71095
YIO

Download Data

Hourly Data (September 2017)
Hourly Data Report for September 19, 2017
Temp Definition
°C
Dew Point Temp Definition
°C
Rel Hum Definition
%
Wind Dir Definition
10's deg

Wind Spd Definition
km/h
Visibility Definition
km
Stn Press Definition
kPa
Hmdx Definition


Wind Chill Definition


Weather Definition


TIME
00:00 Legend Double Dagger 0.7 -3.8 72 LegendMM LegendMM LegendMM 100.69     LegendNANA
01:00 Legend Double Dagger 0.4 -5.1 67 LegendMM LegendMM LegendMM 100.75     LegendNANA
02:00 Legend Double Dagger 0.6 -5.4 64 8 22 LegendMM 100.80     LegendNANA
03:00 Legend Double Dagger 0.4 -5.0 67 9 18 16.1 100.88     LegendNANA
04:00 Legend Double Dagger 0.2 -5.0 68 7 22 16.1 100.92     LegendNANA
05:00 Legend Double Dagger -0.2 -5.2 69 9 13 16.1 101.00   -4 LegendNANA
06:00 Legend Double Dagger -1.0 -5.8 70 10 11 16.1 101.05   -5 LegendNANA
07:00 Legend Double Dagger -0.8 -5.8 69 8 15 16.1 101.10   -5 LegendNANA
08:00 Legend Double Dagger 0.2 -5.3 67 8 5 16.1 101.15     LegendNANA
09:00 Legend Double Dagger 0.2 -6.0 63 9 15 16.1 101.20     LegendNANA
10:00 Legend Double Dagger 0.8 -6.0 60 7 15 16.1 101.23     LegendNANA
11:00 Legend Double Dagger 0.3 -5.8 64 8 21 16.1 101.27     LegendNANA
12:00 Legend Double Dagger 0.5 -6.2 61 11 18 16.1 101.31     LegendNANA
13:00 Legend Double Dagger 0.3 -5.7 64 11 18 16.1 101.36     LegendNANA
14:00 Legend Double Dagger -0.4 -5.8 67 11 21 16.1 101.39   -6 LegendNANA
15:00 Legend Double Dagger -0.5 -5.9 67 12 21 16.1 101.42   -6 LegendNANA
16:00 Legend Double Dagger -1.0 -6.4 67 11 15 16.1 101.49   -6 LegendNANA
17:00 Legend Double Dagger -0.2 -6.2 64 LegendMM 4 16.1 101.53   -1 LegendNANA
18:00 Legend Double Dagger -3.2 -8.9 65 11 9 16.1 101.58   -7 LegendNANA
19:00 Legend Double Dagger -3.9 -8.1 73 11 13 16.1 101.61   -9 LegendNANA
20:00 Legend Double Dagger -5.0 -8.4 77 12 17 16.1 101.64   -11 LegendNANA
21:00 Legend Double Dagger -5.5 -7.6 85 4 4 16.1 101.69   -7 LegendNANA
22:00 Legend Double Dagger -6.6 -9.3 81 17 9 16.1 101.74   -11 LegendNANA
23:00 Legend Double Dagger -6.2 -8.8 82   0 16.1 101.78     LegendNANA

Notes on Data Quality.

Legend

  • E = Estimated
  • M = Missing
  • NA = Not Available
  • ‡ = Partner data that is not subject to review by the National Climate Archives
Date modified: